Regional Weather Roundup
Issued by NWS

Home | Current Version | Previous Version | Graphics & Text | Print | Product List | Glossary On
Versions: 1 2 3 4 5 6 7 8 9 10 11 12 13 14 15 16 17 18 19 20 21 22 23 24 25 26 27 28 29 30 31 32 33 34 35 36 37 38 39 40 41 42 43 44 45 46 47 48 49 50
893
ASUS43 KFSD 142102
RWRSD

WEATHER ROUNDUP FOR SOUTH DAKOTA
NATIONAL WEATHER SERVICE SIOUX FALLS SD
300 PM CST THU DEC 14 2017

NOTE: "FAIR" INDICATES FEW OR NO CLOUDS BELOW 12,000 FEET WITH NO
SIGNIFICANT WEATHER AND/OR OBSTRUCTIONS TO VISIBILITY.


SDZ001>005-009-010-012>017-142200-
NORTHWEST AND NORTH CENTRAL SOUTH DAKOTA

CITY           SKY/WX    TMP DP  RH WIND       PRES   REMARKS
BUFFALO          N/A     34  27  75 NW18      30.12S WCI  23
FAITH            N/A     34  25  69 NW20G26   30.14F WCI  23
MOBRIDGE       CLOUDY    37  24  59 NW20G25   30.09F
$$

SDZ012>016-024>037-041>051-057-063-072>074-142200-
SOUTHWEST AND SOUTH CENTRAL SOUTH DAKOTA

CITY           SKY/WX    TMP DP  RH WIND       PRES   REMARKS
RAPID CTY ARPT CLOUDY    35  22  58 N31G39    30.18S WCI  22
PIERRE         CLOUDY    35  29  78 N17       30.13S WCI  25
CUSTER         CLOUDY    26  13  57 NW8       30.11S WCI  18
ELLSWORTH AFB  CLOUDY    34  23  63 N25G31    30.17S WCI  21
PHILIP         CLOUDY    34  31  88 N10       30.18R WCI  26
PINE RIDGE     CLOUDY    34  25  69 N15G21    30.20R WCI  24
SPEARFISH      LGT RAIN  30  23  74 NW13      30.20F WCI  20
WINNER         CLOUDY    35  31  85 N16       30.13R WCI  25
$$

SDZ004>011-016>023-039-040-142200-
NORTHEAST SOUTH DAKOTA

CITY           SKY/WX    TMP DP  RH WIND       PRES   REMARKS
ABERDEEN       CLOUDY    29  27  92 N12       30.10S WCI  19
WATERTOWN      CLOUDY    26  25  96 N9        30.03R WCI  17
BROOKINGS      MIX PCPN  31  29  92 NW9       30.02R WCI  23
SISSETON         N/A     27  23  85 N13       30.06R WCI  16
$$

SDZ017-020-022-023-036>040-048>070-142200-
SOUTHEAST SOUTH DAKOTA

CITY           SKY/WX    TMP DP  RH WIND       PRES   REMARKS
SIOUX FALLS    FLURRIES  34  28  79 NW10      30.04R WCI  26
HURON          CLOUDY    34  28  79 N15       30.08R WCI  24
CHAMBERLAIN    CLOUDY    35  32  87 N16G30    30.12R WCI  26
MITCHELL       CLOUDY    36  31  82 N15       30.09R
YANKTON        CLOUDY    37  26  64 NW10      30.07R
$$

ABBREVIATIONS USED IN REMARKS
   TC - TEMPERATURE IN CELSIUS
  WCI - WIND CHILL INDEX
   HX - HEAT INDEX
  VSB - VISIBILITY





USA.gov is the U.S. government's official web portal to all federal, state and local government web resources and services.